If you wish to contribute or participate in the discussions about articles you are invited to join SKYbrary as a registered user

 Actions

Dole-Tavaux Airport

From SKYbrary Wiki

LFGJ /
Revision as of 20:15, 16 February 2015 by Timo.Kouwenhoven (talk | contribs) (LF Airports CSV import)
(diff) ← Older revision | Latest revision (diff) | Newer revision → (diff)
Airport
ICAO: LFGJ – IATA: DLE
Summary
Name Dole-Tavaux Airport
Region Europe
Territory France FR.gif
Location , Franche-Comte
Serving Dole
Elevation 196.596 m
645 ft
645 ft196.596 m
Type medium airport
Coordinates 47° 2' 20.45" N, 5° 25' 38.10" E
Runways
Designator Length Width Surface ROPS
5/23 2231 m7,319.554 ft
45 m147.638 ft
ASP yes/yes


METAR
Observation LFGJ 121030Z AUTO 19011KT 9999 FEW016 SCT027 BKN033 05/03 Q1009 NOSIG
Station Dole Tavaux
Date/Time 12 December 2019 10:30:00
Wind direction 190°
Wind speed 11 kts
Lowest cloud amount few clouds
Temperature 5°C
Dew point 3°C
Humidity 86%
QNH 1009 hPa
Weather condition n/a